Weather History for KPDC - April, 2013

Change the Weather History Date:

Wednesday, April 3, 2013

  Actual Average Record
Temperature  
Mean Temperature 32 °F -  
Max Temperature 45 °F 54 °F 80 °F (1981)
Min Temperature 20 °F 33 °F 13 °F (1954)
Degree Days  
Heating Degree Days 32    
Moisture  
Dew Point 16 °F    
Average Humidity 54    
Maximum Humidity 88    
Minimum Humidity 25    
Precipitation  
Precipitation 0.00 in - - ()
Sea Level Pressure  
Sea Level Pressure 30.36 in    
Wind  
Wind Speed 1 mph (SSE)    
Max Wind Speed 9 mph    
Max Gust Speed -    
Visibility 10 miles    
Events      
Averages and records for this station are not official NWS values.
T = Trace of Precipitation, MM = Missing Value Source: NWS Daily Summary

Daily Weather History Graph

Daily Weather History Graph

Search for Another Location

Airport or City:

Trip Planner

Search our weather history database for the weather conditions in past years. The results will help you decide how hot, cold, wet, or windy it might be!

Date:

Astronomy

Apr. 03, 2013 Rise Set
Actual Time 6:42 AM CDT 7:33 PM CDT
Civil Twilight 6:13 AM CDT 8:02 PM CDT
Nautical Twilight 5:39 AM CDT 8:36 PM CDT
Astronomical Twilight 5:04 AM CDT 9:12 PM CDT
Moon 2:33 AM CDT (4/3) 12:36 PM CDT (4/3)
Length of Visible Light 13h 48m
Length of Day
12h 50m
Last Quarter, 44% of the Moon is Illuminated
Apr 3
Last Quarter
Apr 10
New
Apr 18
First Quarter
Apr 25
Full
May 2
Last Quarter

Hourly Weather History & Observations

Time (CDT) Temp. Windchill Dew Point Humidity Pressure Visibility Wind Dir Wind Speed Gust Speed Precip Events Conditions
12:15 AM 28.0 °F - 16.7 °F 62% 30.35 in 10.0 mi Calm Calm - N/A   Clear
12:35 AM 25.2 °F - 18.3 °F 75% 30.35 in 10.0 mi Calm Calm - N/A   Clear
12:55 AM 24.8 °F - 18.1 °F 76% 30.36 in 10.0 mi Calm Calm - N/A   Clear
1:15 AM 24.6 °F - 19.2 °F 80% 30.36 in 10.0 mi Calm Calm - N/A   Clear
1:35 AM 24.8 °F - 18.5 °F 77% 30.36 in 10.0 mi Calm Calm - N/A   Clear
1:55 AM 23.9 °F - 17.6 °F 77% 30.36 in 10.0 mi Calm Calm - N/A   Clear
2:15 AM 24.3 °F - 18.0 °F 77% 30.37 in 10.0 mi Calm Calm - N/A   Clear
2:35 AM 23.2 °F - 18.1 °F 81% 30.37 in 10.0 mi Calm Calm - N/A   Clear
2:55 AM 23.0 °F - 18.0 °F 81% 30.37 in 10.0 mi Calm Calm - N/A   Clear
3:15 AM 22.3 °F - 17.8 °F 83% 30.37 in 10.0 mi Calm Calm - N/A   Clear
3:35 AM 22.5 °F - 17.6 °F 82% 30.37 in 10.0 mi Calm Calm - N/A   Clear
4:15 AM 22.1 °F - 17.4 °F 82% 30.38 in 10.0 mi Calm Calm - N/A   Clear
4:35 AM 22.5 °F - 18.0 °F 83% 30.39 in 10.0 mi Calm Calm - N/A   Clear
4:55 AM 21.0 °F - 17.2 °F 85% 30.38 in 10.0 mi Calm Calm - N/A   Clear
5:15 AM 21.2 °F - 17.6 °F 86% 30.39 in 10.0 mi Calm Calm - N/A   Clear
5:35 AM 21.2 °F - 17.8 °F 87% 30.39 in 10.0 mi Calm Calm - N/A   Clear
5:55 AM 20.3 °F - 17.1 °F 87% 30.40 in 10.0 mi Calm Calm - N/A   Clear
6:15 AM 20.5 °F - 16.7 °F 85% 30.41 in 10.0 mi Calm Calm - N/A   Clear
6:35 AM 20.1 °F - 17.1 °F 88% 30.42 in 10.0 mi Calm Calm - N/A   Clear
6:55 AM 20.7 °F - 17.1 °F 86% 30.44 in 10.0 mi Calm Calm - N/A   Clear
7:15 AM 20.7 °F - 17.2 °F 87% 30.44 in 10.0 mi Calm Calm - N/A   Clear
7:35 AM 22.6 °F - 18.7 °F 85% 30.45 in 10.0 mi Calm Calm - N/A   Clear
7:55 AM 24.6 °F - 20.1 °F 83% 30.45 in 10.0 mi Calm Calm - N/A   Clear
8:15 AM 26.1 °F - 21.7 °F 84% 30.45 in 10.0 mi Calm Calm - N/A   Clear
8:35 AM 27.3 °F - 22.1 °F 81% 30.44 in 10.0 mi Calm Calm - N/A   Clear
8:55 AM 29.5 °F - 21.4 °F 72% 30.44 in 10.0 mi Calm Calm - N/A   Clear
9:15 AM 30.7 °F - 21.7 °F 69% 30.44 in 10.0 mi Calm Calm - N/A   Clear
9:35 AM 31.6 °F - 22.3 °F 68% 30.44 in 10.0 mi Calm Calm - N/A   Clear
9:55 AM 32.5 °F - 21.9 °F 65% 30.44 in 10.0 mi Calm Calm - N/A   Clear
10:15 AM 35.2 °F - 18.3 °F 50% 30.43 in 10.0 mi Calm Calm - N/A   Clear
10:35 AM 36.3 °F 32.5 °F 14.5 °F 41% 30.43 in 10.0 mi ESE 4.6 mph - N/A   Clear
10:55 AM 37.9 °F 34.4 °F 10.0 °F 32% 30.42 in 10.0 mi East 4.6 mph - N/A   Clear
11:15 AM 38.5 °F - 12.4 °F 34% 30.42 in 10.0 mi Calm Calm - N/A   Clear
11:35 AM 39.6 °F 35.4 °F 11.3 °F 31% 30.42 in 10.0 mi SW 5.8 mph - N/A   Clear
11:55 AM 40.8 °F 36.2 °F 10.4 °F 29% 30.41 in 10.0 mi SE 6.9 mph - N/A   Clear
12:15 PM 40.8 °F 36.2 °F 9.0 °F 27% 30.41 in 10.0 mi ESE 6.9 mph - N/A   Clear
12:35 PM 41.0 °F 39.0 °F 10.8 °F 29% 30.39 in 10.0 mi South 3.5 mph - N/A   Clear
12:55 PM 41.5 °F 38.6 °F 11.5 °F 29% 30.39 in 10.0 mi SE 4.6 mph - N/A   Clear
1:15 PM 42.6 °F 39.0 °F 12.2 °F 29% 30.39 in 10.0 mi SE 5.8 mph - N/A   Clear
1:35 PM 42.3 °F 36.8 °F 11.5 °F 29% 30.39 in 10.0 mi South 9.2 mph - N/A   Clear
1:55 PM 42.8 °F 37.5 °F 11.5 °F 28% 30.39 in 10.0 mi SW 9.2 mph - N/A   Clear
2:15 PM 43.2 °F 39.0 °F 9.7 °F 26% 30.38 in 10.0 mi SSE 6.9 mph - N/A   Clear
2:35 PM 43.7 °F 39.1 °F 10.8 °F 26% 30.38 in 10.0 mi SE 8.1 mph - N/A   Clear
2:55 PM 44.2 °F 42.7 °F 11.1 °F 26% 30.37 in 10.0 mi South 3.5 mph - N/A   Clear
3:15 PM 44.2 °F - 12.0 °F 27% 30.36 in 10.0 mi Calm Calm - N/A   Clear
3:35 PM 43.9 °F 41.3 °F 11.8 °F 27% 30.34 in 10.0 mi SSW 4.6 mph - N/A   Clear
3:55 PM 45.0 °F 41.8 °F 13.3 °F 28% 30.34 in 10.0 mi South 5.8 mph - N/A   Clear
4:15 PM 45.3 °F 42.3 °F 11.3 °F 25% 30.33 in 10.0 mi SE 5.8 mph - N/A   Clear
4:35 PM 45.3 °F 43.0 °F 12.9 °F 27% 30.33 in 10.0 mi SSE 4.6 mph - N/A   Clear
4:55 PM 45.1 °F 42.8 °F 14.4 °F 29% 30.32 in 10.0 mi South 4.6 mph - N/A   Clear
5:15 PM 45.5 °F 43.2 °F 14.2 °F 28% 30.31 in 10.0 mi South 4.6 mph - N/A   Clear
5:35 PM 44.6 °F 42.2 °F 13.8 °F 29% 30.31 in 10.0 mi SSE 4.6 mph - N/A   Clear
5:55 PM 44.8 °F 43.3 °F 13.3 °F 28% 30.31 in 10.0 mi SSE 3.5 mph - N/A   Clear
6:15 PM 44.1 °F 40.1 °F 14.9 °F 31% 30.30 in 10.0 mi South 6.9 mph - N/A   Clear
6:35 PM 43.9 °F 39.9 °F 15.8 °F 32% 30.30 in 10.0 mi South 6.9 mph - N/A   Clear
6:55 PM 43.5 °F 40.9 °F 16.7 °F 34% 30.29 in 10.0 mi South 4.6 mph - N/A   Clear
7:15 PM 42.8 °F 41.1 °F 16.5 °F 35% 30.29 in 10.0 mi South 3.5 mph - N/A   Clear
7:35 PM 42.1 °F - 16.5 °F 36% 30.29 in 10.0 mi Calm Calm - N/A   Clear
7:55 PM 41.2 °F - 16.7 °F 37% 30.28 in 10.0 mi Calm Calm - N/A   Clear
8:15 PM 41.4 °F - 16.2 °F 36% 30.28 in 10.0 mi Calm Calm - N/A   Clear
8:35 PM 40.1 °F - 17.4 °F 40% 30.28 in 10.0 mi Calm Calm - N/A   Clear
8:55 PM 38.5 °F - 19.0 °F 46% 30.28 in 10.0 mi Calm Calm - N/A   Clear
9:15 PM 37.6 °F - 20.3 °F 50% 30.28 in 10.0 mi Calm Calm - N/A   Clear
9:35 PM 35.4 °F - 21.0 °F 56% 30.28 in 10.0 mi Calm Calm - N/A   Clear
9:55 PM 36.7 °F 34.1 °F 20.1 °F 51% 30.28 in 10.0 mi ESE 3.5 mph - N/A   Clear
10:15 PM 36.9 °F - 19.4 °F 49% 30.28 in 10.0 mi Calm Calm - N/A   Clear
10:35 PM 36.1 °F - 19.6 °F 51% 30.27 in 10.0 mi Calm Calm - N/A   Clear
10:55 PM 35.1 °F 32.2 °F 20.3 °F 55% 30.26 in 10.0 mi ESE 3.5 mph - N/A   Clear
11:15 PM 35.1 °F - 19.9 °F 54% 30.26 in 10.0 mi Calm Calm - N/A   Clear
11:35 PM 35.8 °F - 19.6 °F 52% 30.26 in 10.0 mi Calm Calm - N/A   Clear
11:55 PM 36.7 °F - 19.9 °F 51% 30.26 in 10.0 mi Calm Calm - N/A   Clear